�N����,����,�~����,�C��,���x,�C��,����,���ϕ���,�ő�u�ԕ���,�ő厞����,���˗�,�I�_���x,�n�����x,�ő啗���N��,DTYPE
"18/12/01","00:10",0.0,5.3,97.0,1018.0,288.5,1.2,1.8,318.7,0.00,4.9,10.5,"00:00:02",1
"18/12/01","00:20",0.0,5.5,97.4,1017.8,319.7,2.0,2.2,321.0,0.00,5.2,10.6,"00:15:28",1
"18/12/01","00:30",0.0,5.2,96.9,1018.0,302.2,1.1,2.0,308.3,0.00,4.8,10.7,"00:20:24",1
"18/12/01","00:40",0.0,5.1,97.7,1017.8,306.1,1.3,1.8,310.9,0.00,4.8,10.5,"00:34:40",1
"18/12/01","00:50",0.0,4.9,97.1,1017.5,309.1,1.7,2.4,320.9,0.00,4.5,10.5,"00:43:20",1
"18/12/01","01:00",0.0,5.1,98.7,1017.5,308.6,1.6,2.0,320.2,0.00,5.0,10.3,"00:50:16",1
"18/12/01","01:10",0.0,5.0,97.1,1017.1,296.0,1.2,2.4,313.8,0.00,4.6,10.4,"01:09:12",1
"18/12/01","01:20",0.0,5.1,97.8,1017.1,313.2,0.8,2.1,323.0,0.00,4.8,10.3,"01:10:16",1
"18/12/01","01:30",0.0,4.9,98.3,1017.5,311.4,2.1,2.7,318.0,0.00,4.7,10.2,"01:23:04",1
"18/12/01","01:40",0.0,5.0,97.4,1017.1,313.6,1.6,2.5,319.9,0.00,4.7,10.3,"01:37:44",1
"18/12/01","01:50",0.0,4.7,98.5,1017.5,301.4,1.6,2.0,316.4,0.00,4.5,9.9,"01:40:24",1
"18/12/01","02:00",0.0,5.2,98.6,1017.3,292.2,1.5,2.1,313.7,0.00,5.0,10.1,"01:56:32",1
"18/12/01","02:10",0.0,5.3,97.4,1017.3,299.5,1.2,2.0,311.3,0.00,5.0,10.2,"02:02:16",1
"18/12/01","02:20",0.0,4.6,97.5,1017.3,316.7,1.8,2.9,323.4,0.00,4.3,9.9,"02:17:04",1
"18/12/01","02:30",0.0,4.4,98.6,1017.5,313.0,2.0,2.8,319.7,0.00,4.2,9.8,"02:22:00",1
"18/12/01","02:40",0.0,4.4,98.1,1017.5,283.0,1.3,1.7,302.1,0.00,4.2,9.8,"02:37:36",1
"18/12/01","02:50",0.0,4.6,98.4,1017.1,293.1,1.6,2.0,312.8,0.00,4.4,10.0,"02:44:40",1
"18/12/01","03:00",0.0,4.5,98.3,1017.3,300.1,1.3,2.4,311.0,0.00,4.3,9.9,"02:59:04",1
"18/12/01","03:10",0.0,4.5,98.4,1017.1,309.4,2.0,2.7,317.5,0.00,4.3,9.7,"03:04:40",1
"18/12/01","03:20",0.0,4.6,98.3,1017.1,301.4,1.7,2.1,292.3,0.00,4.4,9.7,"03:11:20",1
"18/12/01","03:30",0.0,4.5,98.2,1016.8,295.1,1.3,1.8,297.9,0.00,4.3,9.6,"03:22:24",1
"18/12/01","03:40",0.0,4.6,98.8,1016.8,299.1,1.8,2.2,315.6,0.00,4.5,9.6,"03:38:40",1
"18/12/01","03:50",0.0,4.4,97.9,1017.3,307.4,1.8,2.7,319.3,0.00,4.1,9.8,"03:41:36",1
"18/12/01","04:00",0.0,4.1,99.2,1016.8,297.9,1.8,2.2,310.2,0.00,4.0,9.7,"03:57:12",1
"18/12/01","04:10",0.0,4.2,98.1,1016.8,302.9,1.5,1.8,296.5,0.00,4.0,9.4,"04:04:24",1
"18/12/01","04:20",0.0,4.4,99.3,1016.6,304.4,1.6,2.1,314.8,0.00,4.3,9.7,"04:18:54",1
"18/12/01","04:30",0.0,4.6,98.4,1016.6,313.3,1.7,2.2,322.4,0.00,4.4,9.5,"04:22:56",1
"18/12/01","04:40",0.0,4.3,98.6,1016.6,291.2,1.2,1.4,305.9,0.00,4.1,9.4,"04:30:08",1
"18/12/01","04:50",0.0,4.4,98.8,1016.8,290.7,1.1,1.3,271.5,0.00,4.3,9.6,"04:40:20",1
"18/12/01","05:00",0.0,4.5,98.4,1016.8,299.9,1.2,1.7,304.0,0.00,4.3,9.4,"04:58:04",1
"18/12/01","05:10",0.0,4.4,98.9,1017.1,297.2,1.6,2.5,322.3,0.00,4.3,9.4,"05:08:50",1
"18/12/01","05:20",0.0,4.6,98.6,1017.1,284.1,1.3,1.8,309.1,0.00,4.4,9.3,"05:11:54",1
"18/12/01","05:30",0.0,4.4,98.3,1016.8,284.7,1.1,1.8,306.4,0.00,4.2,9.4,"05:25:10",1
"18/12/01","05:40",0.0,4.4,99.0,1017.1,277.9,0.8,1.3,296.0,0.00,4.3,9.2,"05:36:32",1
"18/12/01","05:50",0.0,4.7,98.4,1017.1,297.6,0.7,1.6,297.2,0.00,4.5,9.5,"05:47:54",1
"18/12/01","06:00",0.0,4.5,98.7,1017.1,305.9,1.8,2.5,323.2,0.00,4.4,9.4,"05:54:32",1
"18/12/01","06:10",0.0,4.4,99.0,1017.3,297.5,1.2,2.0,307.7,0.00,4.3,9.5,"06:08:20",1
"18/12/01","06:20",0.0,4.5,98.9,1017.5,297.0,1.7,2.2,309.0,0.00,4.4,9.4,"06:19:00",1
"18/12/01","06:30",0.0,4.6,99.2,1017.1,296.8,1.0,2.0,313.3,0.00,4.5,9.4,"06:20:34",1
"18/12/01","06:40",0.0,4.7,98.8,1017.3,293.3,1.1,1.6,294.0,0.00,4.6,9.3,"06:32:36",1
"18/12/01","06:50",0.0,4.5,98.3,1017.5,294.4,1.2,2.0,317.5,0.00,4.3,9.4,"06:45:04",1
"18/12/01","07:00",0.0,4.3,99.1,1017.8,293.3,1.5,2.0,315.9,0.00,4.2,9.3,"06:58:10",1
"18/12/01","07:10",0.0,4.6,99.4,1017.8,302.6,1.5,1.8,315.4,0.00,4.6,9.4,"07:02:06",1
"18/12/01","07:20",0.0,4.9,99.1,1018.0,310.5,1.5,2.0,316.9,0.00,4.8,9.2,"07:17:12",1
"18/12/01","07:30",0.0,5.2,99.3,1018.0,281.8,1.3,1.4,302.3,0.00,5.1,9.3,"07:27:14",1
"18/12/01","07:40",0.0,5.6,99.2,1018.0,284.5,1.2,1.3,279.9,0.00,5.5,9.2,"07:33:22",1
"18/12/01","07:50",0.0,5.9,98.8,1018.0,180.1,0.3,1.0,289.9,0.01,5.8,9.3,"07:45:02",1
"18/12/01","08:00",0.0,6.0,98.9,1018.2,255.8,0.6,1.1,282.7,0.02,5.9,9.4,"07:56:06",1
"18/12/01","08:10",0.0,6.4,99.0,1018.0,296.4,0.7,1.2,302.9,0.02,6.3,9.3,"08:01:50",1
"18/12/01","08:20",0.0,6.6,98.6,1018.7,298.0,1.5,1.7,304.3,0.03,6.4,9.6,"08:14:08",1
"18/12/01","08:30",0.0,7.0,98.7,1018.7,311.5,1.0,2.0,314.5,0.05,6.8,9.5,"08:21:22",1
"18/12/01","08:40",0.0,7.2,98.8,1018.7,309.0,0.2,1.0,335.2,0.06,7.1,9.6,"08:39:52",1
"18/12/01","08:50",0.0,7.4,98.6,1019.2,287.6,0.5,1.6,316.6,0.08,7.2,9.9,"08:40:48",1
"18/12/01","09:00",0.0,8.1,98.4,1019.0,228.7,0.3,0.8,293.3,0.12,7.9,9.9,"08:50:16",1
"18/12/01","09:10",0.0,8.3,97.5,1019.2,257.8,1.0,1.7,246.9,0.11,8.0,10.0,"09:09:52",1
"18/12/01","09:20",0.0,9.0,97.9,1019.2,253.7,1.1,1.6,251.5,0.18,8.7,10.2,"09:10:08",1
"18/12/01","09:30",0.0,9.4,96.3,1019.4,268.2,0.8,1.4,317.0,0.23,8.9,10.6,"09:28:48",1
"18/12/01","09:40",0.0,9.8,93.7,1019.9,258.0,0.6,1.3,167.8,0.19,8.9,10.6,"09:34:32",1
"18/12/01","09:50",0.0,10.3,91.3,1020.1,283.7,0.7,1.1,262.9,0.18,9.0,10.8,"09:41:44",1
"18/12/01","10:00",0.0,10.6,88.1,1019.9,302.3,0.7,1.4,308.4,0.15,8.8,10.9,"09:52:16",1
"18/12/01","10:10",0.0,11.2,86.1,1019.9,326.4,0.7,1.7,317.9,0.21,9.0,11.2,"10:01:44",1
"18/12/01","10:20",0.0,11.6,84.4,1020.4,232.3,0.5,1.1,197.8,0.23,9.1,11.2,"10:19:28",1
"18/12/01","10:30",0.0,11.9,82.6,1020.4,230.1,0.8,2.0,227.1,0.28,9.1,11.5,"10:28:48",1
"18/12/01","10:40",0.0,12.5,82.4,1020.4,229.3,0.8,1.7,199.6,0.22,9.6,11.4,"10:33:36",1
"18/12/01","10:50",0.0,12.7,79.7,1020.8,217.5,0.8,1.4,106.2,0.26,9.3,11.8,"10:45:36",1
"18/12/01","11:00",0.0,12.8,79.1,1020.6,208.7,0.6,1.2,226.9,0.19,9.3,11.8,"10:50:56",1
"18/12/01","11:10",0.0,13.2,78.1,1020.8,191.5,0.7,1.9,216.7,0.18,9.5,12.2,"11:07:12",1
"18/12/01","11:20",0.0,13.4,76.9,1021.1,255.5,0.5,1.2,332.5,0.17,9.5,12.2,"11:19:04",1
"18/12/01","11:30",0.0,13.7,75.2,1020.6,286.6,0.6,1.1,266.2,0.19,9.4,12.3,"11:25:04",1
"18/12/01","11:40",0.0,14.4,73.4,1020.8,150.1,0.7,1.7,102.5,0.35,9.7,12.4,"11:35:12",1
"18/12/01","11:50",0.0,14.9,70.0,1020.1,215.0,0.8,2.0,208.6,0.38,9.5,12.7,"11:44:24",1
"18/12/01","12:00",0.0,16.2,62.1,1019.9,279.4,2.0,4.2,246.5,0.44,9.0,12.9,"11:56:48",1
"18/12/01","12:10",0.0,15.6,60.6,1020.1,316.3,2.6,5.4,328.6,0.25,8.1,13.1,"12:07:04",1
"18/12/01","12:20",0.0,16.0,58.5,1019.9,296.3,2.5,5.9,338.4,0.31,7.9,13.3,"12:13:36",1
"18/12/01","12:30",0.0,16.6,59.3,1019.2,275.3,1.8,4.2,323.6,0.35,8.7,13.4,"12:28:56",1
"18/12/01","12:40",0.0,16.5,58.3,1019.0,282.8,1.6,3.2,349.0,0.36,8.3,13.7,"12:37:12",1
"18/12/01","12:50",0.0,16.6,54.7,1019.0,306.9,2.2,4.9,336.3,0.35,7.5,13.7,"12:48:56",1
"18/12/01","13:00",0.0,15.7,56.5,1018.7,323.0,3.4,6.7,326.5,0.14,7.1,13.8,"12:59:44",1
"18/12/01","13:10",0.0,16.1,57.8,1019.2,337.4,3.5,6.4,337.8,0.22,7.8,14.0,"13:05:20",1
"18/12/01","13:20",0.0,15.4,59.3,1018.7,0.1,2.8,7.0,346.6,0.25,7.6,14.0,"13:19:44",1
"18/12/01","13:30",0.0,15.4,59.6,1018.7,355.3,3.2,6.0,351.1,0.21,7.6,13.7,"13:27:04",1
"18/12/01","13:40",0.0,15.3,58.1,1018.7,354.9,3.1,8.0,341.3,0.22,7.2,14.0,"13:31:04",1
"18/12/01","13:50",0.0,15.2,58.9,1018.7,346.8,3.2,6.3,11.9,0.17,7.3,13.9,"13:46:00",1
"18/12/01","14:00",0.0,15.4,57.4,1018.5,331.8,2.6,5.6,344.9,0.19,7.1,13.9,"13:50:02",1
"18/12/01","14:10",0.0,15.2,57.8,1019.0,326.8,3.0,6.2,337.9,0.16,7.0,13.8,"14:05:24",1
"18/12/01","14:20",0.0,15.5,57.8,1019.0,334.5,2.5,4.0,338.1,0.21,7.3,13.9,"14:11:20",1
"18/12/01","14:30",0.0,15.6,57.0,1019.0,330.7,2.2,5.6,344.3,0.17,7.2,14.0,"14:21:12",1
"18/12/01","14:40",0.0,15.6,56.4,1019.2,331.0,2.5,5.4,345.0,0.17,7.0,14.0,"14:32:16",1
"18/12/01","14:50",0.0,16.1,55.6,1019.2,308.6,1.7,3.7,357.8,0.24,7.3,14.1,"14:42:48",1
"18/12/01","15:00",0.0,16.0,54.1,1019.0,317.7,1.6,3.2,353.8,0.26,6.8,14.1,"14:58:56",1
"18/12/01","15:10",0.0,16.0,53.0,1019.4,1.3,2.2,4.9,340.7,0.25,6.5,14.1,"15:01:20",1
"18/12/01","15:20",0.0,16.0,53.8,1019.0,341.7,2.5,4.9,332.9,0.22,6.7,14.2,"15:13:04",1
"18/12/01","15:30",0.0,15.8,55.0,1019.2,343.9,2.6,4.9,327.9,0.18,6.8,14.1,"15:24:56",1
"18/12/01","15:40",0.0,15.2,52.8,1019.4,331.7,2.7,5.7,329.0,0.13,5.7,14.4,"15:31:20",1
"18/12/01","15:50",0.0,15.3,53.4,1019.2,319.4,2.6,4.7,337.1,0.12,5.9,14.3,"15:43:12",1
"18/12/01","16:00",0.0,14.9,53.0,1019.4,337.8,2.5,5.6,356.9,0.08,5.5,14.1,"15:59:20",1
"18/12/01","16:10",0.0,14.8,52.5,1019.4,339.2,3.1,4.8,334.2,0.05,5.2,14.2,"16:04:16",1
"18/12/01","16:20",0.0,14.6,53.5,1019.7,339.5,2.6,5.6,340.8,0.04,5.3,14.0,"16:13:52",1
"18/12/01","16:30",0.0,14.5,55.5,1019.7,335.2,1.8,3.3,340.6,0.03,5.7,14.1,"16:21:36",1
"18/12/01","16:40",0.0,14.1,57.3,1019.7,334.8,2.0,3.7,338.5,0.00,5.8,13.9,"16:37:52",1
"18/12/01","16:50",0.0,13.9,58.3,1019.9,345.3,2.2,4.0,324.9,0.00,5.9,13.9,"16:46:58",1
"18/12/01","17:00",0.0,13.8,60.7,1020.1,342.2,1.7,3.3,351.4,0.00,6.4,13.8,"16:57:20",1
"18/12/01","17:10",0.0,13.6,61.7,1020.1,340.6,2.0,3.2,339.1,0.00,6.4,13.5,"17:09:12",1
"18/12/01","17:20",0.0,13.3,62.7,1020.4,332.0,1.6,3.4,340.6,0.00,6.4,13.4,"17:18:02",1
"18/12/01","17:30",0.0,13.3,63.9,1020.4,343.8,1.8,3.6,339.9,0.00,6.7,13.6,"17:24:48",1
"18/12/01","17:40",0.0,13.3,64.5,1020.6,347.3,2.2,4.3,22.5,0.00,6.8,13.4,"17:34:16",1
"18/12/01","17:50",0.0,13.1,65.8,1020.4,333.2,2.7,5.9,314.5,0.00,6.9,13.3,"17:44:08",1
"18/12/01","18:00",0.0,12.7,66.8,1020.8,331.3,2.2,4.3,344.6,0.00,6.7,13.4,"17:51:14",1
"18/12/01","18:10",0.0,12.4,68.3,1021.1,332.4,2.3,4.5,335.6,0.00,6.8,13.3,"18:07:24",1
"18/12/01","18:20",0.0,12.1,69.5,1020.6,329.4,2.2,3.5,356.3,0.00,6.7,13.1,"18:18:10",1
"18/12/01","18:30",0.0,11.9,70.3,1020.8,321.8,2.2,3.6,325.0,0.00,6.7,13.1,"18:20:40",1
"18/12/01","18:40",0.0,11.7,71.1,1021.1,307.8,2.0,2.7,325.1,0.00,6.7,12.9,"18:30:18",1
"18/12/01","18:50",0.0,11.4,71.9,1021.1,308.8,1.7,2.5,305.4,0.00,6.6,12.8,"18:42:28",1
"18/12/01","19:00",0.0,11.2,73.1,1020.8,319.2,1.8,2.6,312.2,0.00,6.6,12.7,"18:51:08",1
"18/12/01","19:10",0.0,10.8,74.1,1021.3,326.7,1.7,2.2,316.1,0.00,6.4,12.6,"19:06:06",1
"18/12/01","19:20",0.0,10.2,75.6,1020.8,325.4,1.5,2.0,331.3,0.00,6.1,12.6,"19:10:48",1
"18/12/01","19:30",0.0,9.5,78.7,1020.8,304.7,1.1,1.9,318.0,0.00,6.0,12.6,"19:20:16",1
"18/12/01","19:40",0.0,9.2,81.6,1020.8,323.3,1.5,2.4,324.3,0.00,6.3,12.3,"19:35:20",1
"18/12/01","19:50",0.0,9.1,82.8,1021.1,315.1,1.6,1.9,296.3,0.00,6.4,12.2,"19:46:00",1
"18/12/01","20:00",0.0,8.9,84.0,1020.8,307.0,1.8,2.5,321.7,0.00,6.4,12.3,"19:55:52",1
"18/12/01","20:10",0.0,9.0,85.4,1021.1,303.8,1.8,2.6,323.5,0.00,6.7,12.0,"20:01:04",1
"18/12/01","20:20",0.0,9.2,85.3,1021.1,320.8,2.0,2.5,333.5,0.00,6.9,12.2,"20:12:16",1
"18/12/01","20:30",0.0,9.3,85.5,1021.3,322.4,1.8,2.7,328.1,0.00,7.0,12.0,"20:25:28",1
"18/12/01","20:40",0.0,9.4,86.1,1021.5,288.6,1.3,1.8,302.2,0.00,7.2,12.1,"20:30:08",1
"18/12/01","20:50",0.0,9.6,86.3,1021.5,325.4,1.6,2.2,332.5,0.00,7.5,12.0,"20:41:12",1
"18/12/01","21:00",0.0,9.7,85.8,1021.5,287.6,1.2,1.7,284.3,0.00,7.5,12.0,"20:57:12",1
"18/12/01","21:10",0.0,10.0,85.1,1021.3,332.3,1.8,2.6,341.5,0.00,7.7,11.8,"21:05:44",1
"18/12/01","21:20",0.0,10.1,83.6,1021.5,327.7,1.3,2.0,322.2,0.00,7.5,11.8,"21:10:32",1
"18/12/01","21:30",0.0,9.8,84.6,1021.5,291.5,1.1,1.7,286.2,0.00,7.4,11.9,"21:21:36",1
"18/12/01","21:40",0.0,9.9,85.3,1021.8,319.6,1.7,2.1,317.6,0.00,7.6,11.7,"21:31:44",1
"18/12/01","21:50",0.0,10.1,84.1,1022.0,333.8,1.7,2.5,338.6,0.00,7.6,12.0,"21:43:26",1
"18/12/01","22:00",0.0,10.1,84.8,1022.0,308.0,1.5,1.9,327.1,0.00,7.7,11.9,"21:58:24",1
"18/12/01","22:10",0.0,10.3,84.2,1022.3,329.4,1.3,2.0,320.6,0.00,7.8,12.0,"22:02:48",1
"18/12/01","22:20",0.0,10.3,83.8,1022.5,320.2,1.7,2.5,338.1,0.00,7.7,11.9,"22:19:16",1
"18/12/01","22:30",0.0,10.3,83.9,1022.3,319.2,2.1,2.9,334.8,0.00,7.7,11.9,"22:27:16",1
"18/12/01","22:40",0.0,10.5,83.1,1022.3,324.8,2.2,3.4,328.9,0.00,7.8,11.8,"22:38:42",1
"18/12/01","22:50",0.0,10.7,81.7,1021.8,323.6,2.5,3.5,309.5,0.00,7.7,12.1,"22:40:56",1
"18/12/01","23:00",0.0,10.6,81.4,1022.3,310.6,2.0,2.7,328.2,0.00,7.6,11.9,"22:51:46",1
"18/12/01","23:10",0.0,10.5,81.6,1022.0,325.6,2.3,3.2,332.4,0.00,7.5,12.0,"23:06:18",1
"18/12/01","23:20",0.0,10.3,81.9,1021.5,330.0,2.3,3.3,335.2,0.00,7.4,12.0,"23:17:38",1
"18/12/01","23:30",0.0,10.1,82.4,1021.5,326.9,2.1,3.2,336.7,0.00,7.3,11.7,"23:20:56",1
"18/12/01","23:40",0.0,9.8,83.2,1021.8,293.8,1.6,2.5,325.4,0.00,7.1,11.7,"23:34:08",1
"18/12/01","23:50",0.0,9.3,84.3,1021.3,293.8,1.3,1.7,312.3,0.00,6.8,11.8,"23:48:56",1
"18/12/01","24:00",0.0,9.1,85.5,1021.3,316.6,1.7,2.2,309.3,0.00,6.8,11.5,"23:51:44",1
